Location: La Bastide
(43.1661°N, 1.2755°E)
Time: 10:14:12
(UTC+00:00)

ISS - Pass Details

Date: 15 February 2026
Orbit: 416 x 426 km, 51.6° (Epoch: 10 March)

Event Time Altitude Azimuth Distance (km) Brightness Sun altitude
Exits shadow 06:07:58 10° 256° (WSW) 1,470 -1.6 -8.8°
Maximum altitude 06:11:10 49° 333° (NNW) 544 -3.4 -8.2°
Drops below altitude 10° 06:14:26 10° 50° (NE) 1,493 -0.4 -7.6°
Sets 06:16:35 0° 56° (NE) 2,358 0.8 -7.3°
